Terminal Aerodrome Forecast
Issued by NWS

Home | Current Version | Previous Version | Text Only | Print | Product List | Glossary On
Versions: 1 2 3 4 5 6 7 8 9 10 11 12 13 14 15 16 17 18 19 20
000
FTUS43 KDDC 201720
TAFHYS
TAF
KHYS 201720Z 2018/2118 01010G18KT P6SM FEW250
     FM202300 04011KT P6SM FEW250
     FM211500 03014KT P6SM OVC020
      AMD NOT SKED=

USA.gov is the U.S. government's official web portal to all federal, state and local government web resources and services.